Regional Weather Roundup
Issued by NWS

Home | Current Version | Previous Version | Graphics & Text | Print | Product List | Glossary On
Versions: 1 2 3 4 5 6 7 8 9 10 11 12 13 14 15 16 17 18 19 20 21 22 23 24 25 26 27 28 29 30 31 32 33 34 35 36 37 38 39 40 41 42 43 44 45 46 47 48 49 50
000
ASUS45 KBOU 180110
RWRCO

WEATHER ROUNDUP FOR COLORADO
NATIONAL WEATHER SERVICE DENVER/BOULDER CO
600 PM MST SUN DEC 17 2017

NOTE: "FAIR" INDICATES FEW OR NO CLOUDS BELOW 12000 FEET WITH NO
SIGNIFICANT WEATHER AND/OR OBSTRUCTIONS TO VISIBILITY.

COZ001>005-013-030-031-180200-
...NORTHWEST COLORADO...

CITY           SKY/WX    TMP DP  RH WIND       PRES   REMARKS
CRAIG          FAIR      21  14  74 E3        30.08R
HAYDEN         FAIR      24  19  81 N3        30.10R
MEEKER         FAIR      25  16  68 CALM      30.06R
RABBIT EARS PA CLOUDY    16  14  93 W14G20    30.01R FOG     WCI   1
STEAMBOAT SPGS CLOUDY    28  20  73 CALM      30.07R
WALDEN         FAIR      19  12  73 S8        30.03R WCI   9
$$

COZ006>008-011-180200-
...WEST CENTRAL VALLEYS...

CITY           SKY/WX    TMP DP  RH WIND       PRES   REMARKS
GRAND JUNCTION FAIR      34  10  37 N9        30.06R WCI  27
MONTROSE       FAIR      29   5  36 S7        30.08R WCI  22
EAGLE          FAIR      30  13  49 E3        30.07R
RIFLE          FAIR      30   9  41 S5        30.06R WCI  25
DELTA          FAIR      33   6  31 N8        30.06R WCI  27
NUCLA          FAIR      37   1  22 CALM      30.08R
$$

COZ017>023-064>068-180200-
...SOUTHWEST COLORADO...

CITY           SKY/WX    TMP DP  RH WIND       PRES   REMARKS
DURANGO        FAIR      36   8  31 SW7       30.01R
CORTEZ         FAIR      27   5  39 S5        30.04R WCI  22
PAGOSA SPRINGS FAIR      32  -1  24 CALM      30.04R
TELLURIDE      FAIR      30   0  27 CALM      30.08R
WOLF CREEK PAS FAIR      18   1  49 SW17      30.10R WCI   2
$$

COZ009-010-012-014-032>034-037-058>063-180200-
...CENTRAL COLORADO...

CITY           SKY/WX    TMP DP  RH WIND       PRES   REMARKS
ASPEN          FAIR      24   8  50 S7        30.04R WCI  16
BUENA VISTA    FAIR      36   1  22 SW12      29.97R
COPPER MTN     NOT AVBL
BERTHOUD PASS  FAIR       7  -4  61 N17G31    29.98R WCI -12
COTTONWOOD PAS FAIR      36   0  21 W7G23     29.99R
GUNNISON       FAIR      28   5  37 N3        30.03R
KREMMLING      FAIR      30  21  69 W3        30.06R
LEADVILLE      FAIR      22   0  38 NW7       30.01R WCI  13
MONARCH PASS   FAIR      19   0  42 SW29G36   30.12R WCI   1
SALIDA         FAIR      39  -1  18 SW10      30.03R
SUNLIGHT       FAIR      18   5  57 SW8G17    30.09R WCI   7
WILKERSON PASS MOCLDY    23  -4  30 W10G21    29.99S WCI  12
$$

COZ069>075-180200-
...SAN LUIS VALLEY/SANGRE DE CRISTO MOUNTAINS...

CITY           SKY/WX    TMP DP  RH WIND       PRES   REMARKS
ALAMOSA        FAIR      30  14  51 S3        29.97R
DEL NORTE      FAIR      24   8  49 W6        30.00R WCI  17
LA VETA PASS   FAIR      28   5  37 SW14G28     N/A  WCI  17
SAGUACHE       FAIR      23   5  46 N8        30.00R WCI  14
$$

COZ035-036-038>040-180200-
...NORTHERN COLORADO FRONT RANGE...

CITY           SKY/WX    TMP DP  RH WIND       PRES   REMARKS
DENVER INTL AP FAIR      29  20  69 E6        29.90R WCI  23
DMNS CITY PARK NOT AVBL
AURORA         PTCLDY    27  18  68 E6        29.90R WCI  20
FRONT RANGE AP PTCLDY    30  23  74 E5        29.91R WCI  25
ERIE MUNI ARPT FAIR      29  23  78 CALM      29.97R
BOULDER MUN AP FAIR      32  27  80 N6        29.92R WCI  26
CENTENNIAL     FAIR      29  21  72 CALM      29.89R
BROOMFIELD     PTCLDY    34  25  69 NE6       29.90R WCI  29
FORT COLLINS   FAIR      31  25  78 NE3       29.94R
LONGMONT       FAIR      27  21  78 NW5       29.95R WCI  22
$$

COZ041-046-047-076>085-087-088-180200-
...PIKES PEAK/PALMER DIVIDE AND SOUTHERN FOOTHILLS...

CITY           SKY/WX    TMP DP  RH WIND       PRES   REMARKS
COLO. SPRINGS  MOCLDY    26  21  81 S6        29.94R WCI  19
A. F. ACADEMY  FAIR      26  20  77 CALM      29.92R
SCHRIEVER AFB  FAIR      22  19  86 SW7       29.94R WCI  14
CHEYENNE MTN   FAIR      26  22  85 CALM      29.87R
ELLICOTT         N/A    N/A N/A N/A SW9       29.92S
FALCON         FAIR      23  20  90 W3        29.94R
FORT CARSON    FAIR      26  21  80 CALM      29.93R
LIMON          FAIR      28  21  75 S7        29.93S WCI  21
MONUMENT HILL  FAIR      23  19  86 W15       29.93R WCI  10
CANON CITY     FAIR      32  25  74 CALM      29.95R
WALSENBURG     FAIR      30  23  74 W6        29.93S WCI  24
TRINIDAD       FAIR      30  22  72 CALM      29.94R
$$

COZ042>045-048>051-090-091-180200-
...NORTHEAST COLORADO...

CITY           SKY/WX    TMP DP  RH WIND       PRES   REMARKS
GREELEY ARPT   FAIR      24  20  84 CALM      29.95R
AKRON          FAIR      28  22  78 SW9       29.93R WCI  19
BURLINGTON     FAIR      26  22  84 SW6       29.96R WCI  19
WRAY           FAIR      28  23  80 W6        29.96R WCI  22
YUMA           FAIR      21  19  93 SW7       29.95R WCI  13
STERLING       FAIR      28  23  80 SW3       29.93R
HOLYOKE        FAIR      34  28  80 SW8       29.94R WCI  27
FORT MORGAN    FAIR      30  22  72 CALM      29.94R
$$

COZ086-089-092>099-180200-
...SOUTHEAST COLORADO...

CITY           SKY/WX    TMP DP  RH WIND       PRES   REMARKS
PUEBLO         FAIR      28  21  75 NE7       29.96R WCI  21
LA JUNTA       FAIR      34  24  67 CALM      29.97R
LAMAR          FAIR      28  20  71 S7        29.98R WCI  21
SPRINGFIELD      N/A     27  23  85 S6        29.99R WCI  20
$$



USA.gov is the U.S. government's official web portal to all federal, state and local government web resources and services.